Date String (YYYY-MM-DD hh:mm:ss) UTC,Instrument flags,absolute air pressure of the measurement (hPa),sample flow rate (lpm),inlet stack bypass flow (lpm),air temperature of the measurement (°C),ambient temperature measured by the external sensor (°C),aerosol sample conditioner tube jacket temperature (°C),OPC LED temperature (°C),internal box temperature (°C),relative humidity of the measurement (%),span deviation,mass concentration of particles derived from Lorenz-Mie calculation of OPC scattering (μg/m³),mass concentration of particles derived from Lorenz-Mie calculation of OPC scattering (μg/m³),mass concentration of particles derived from Lorenz-Mie calculation of OPC scattering (μg/m³)
DateTimeUTC,F1_M11,P_M11,Q1_M11,Q2_M11,T1_M11,T2_M11,T3_M11,T4_M11,T5_M11,U1_M11,ZSPAN_M11,X0_M11,X2_M11,X1_M11
2023-12-15 22:00:00,SystemResetWarning,0835.6,5.00,000.00,024.5,023.7,000.0,032.5,025.9,10.9,0000.0,0004.08,0002.98,0002.65
2023-12-15 22:01:00,SystemResetWarning,0835.6,5.00,000.00,024.5,023.7,000.0,032.5,025.9,10.6,0000.0,0003.98,0002.93,0002.62
2023-12-15 22:02:00,SystemResetWarning,0835.6,5.01,000.00,024.5,023.7,000.0,032.6,025.9,10.1,0000.0,0003.92,0002.91,0002.61
2023-12-15 22:03:00,SystemResetWarning,0835.6,5.00,000.00,024.5,023.7,000.0,032.6,025.9,10.2,0000.0,0003.93,0002.90,0002.60
2023-12-15 22:04:00,SystemResetWarning,0835.6,5.01,000.00,024.5,023.8,000.0,032.6,026.0,10.1,0000.0,0003.86,0002.87,0002.57
2023-12-15 22:05:00,SystemResetWarning,0835.6,5.00,000.00,024.5,023.8,000.0,032.6,026.0,10.2,0000.0,0003.93,0002.83,0002.53
2023-12-15 22:06:00,SystemResetWarning,0835.7,5.00,000.00,024.6,023.8,000.0,032.6,026.0,10.3,0000.0,0003.78,0002.77,0002.49
2023-12-15 22:07:00,SystemResetWarning,0835.7,5.00,000.00,024.6,023.8,000.0,032.6,026.0,10.5,0000.0,0003.68,0002.72,0002.46
2023-12-15 22:08:00,SystemResetWarning,0835.8,5.01,000.00,024.6,023.8,000.0,032.6,026.0,10.7,0000.0,0003.75,0002.70,0002.43
2023-12-15 22:09:00,SystemResetWarning,0835.9,5.00,000.00,024.6,023.8,000.0,032.7,026.0,10.9,0000.0,0003.74,0002.68,0002.40
2023-12-15 22:10:00,SystemResetWarning,0835.8,5.00,000.00,024.6,023.8,000.0,032.7,026.1,11.2,0000.0,0003.70,0002.66,0002.38
2023-12-15 22:11:00,SystemResetWarning,0835.9,5.00,000.00,024.6,023.9,000.0,032.7,026.1,11.1,0000.0,0003.70,0002.64,0002.35
2023-12-15 22:12:00,SystemResetWarning,0835.9,5.00,000.00,024.7,023.9,000.0,032.7,026.1,10.8,0000.0,0003.73,0002.65,0002.35
2023-12-15 22:13:00,SystemResetWarning,0835.9,5.00,000.00,024.7,023.9,000.0,032.7,026.1,10.5,0000.0,0003.88,0002.71,0002.37
2023-12-15 22:14:00,SystemResetWarning,0835.9,5.00,000.00,024.7,023.9,000.0,032.7,026.1,10.5,0000.0,0004.17,0002.78,0002.42
2023-12-15 22:15:00,SystemResetWarning,0835.9,5.00,000.00,024.7,023.9,000.0,032.8,026.1,10.6,0000.0,0004.49,0002.85,0002.47
2023-12-15 22:16:00,SystemResetWarning,0835.9,4.99,000.00,024.7,023.9,000.0,032.8,026.1,10.8,0000.0,0004.48,0002.88,0002.49
2023-12-15 22:17:00,SystemResetWarning,0835.9,5.00,000.00,024.7,023.9,000.0,032.8,026.1,11.4,0000.0,0004.58,0002.94,0002.51
2023-12-15 22:18:00,SystemResetWarning,0835.9,5.00,000.00,024.7,023.9,000.0,032.8,026.1,11.4,0000.0,0004.60,0002.98,0002.54
2023-12-15 22:19:00,SystemResetWarning,0835.9,5.00,000.00,024.7,023.9,000.0,032.8,026.1,11.4,0000.0,0004.52,0002.98,0002.57
2023-12-15 22:20:00,SystemResetWarning,0835.8,5.00,000.00,024.7,023.9,000.0,032.8,026.1,11.4,0000.0,0004.61,0003.04,0002.61
2023-12-15 22:21:00,SystemResetWarning,0835.8,5.00,000.00,024.7,023.9,000.0,032.8,026.1,11.6,0000.0,0004.83,0003.14,0002.70
2023-12-15 22:22:00,SystemResetWarning,0835.8,5.01,000.00,024.8,023.9,000.0,032.9,026.2,11.5,0000.0,0004.98,0003.19,0002.77
2023-12-15 22:23:00,SystemResetWarning,0835.8,5.00,000.00,024.8,023.9,000.0,032.9,026.2,11.7,0000.0,0005.12,0003.24,0002.86
2023-12-15 22:24:00,SystemResetWarning,0835.7,5.00,000.00,024.8,023.9,000.0,032.9,026.2,11.8,0000.0,0005.21,0003.28,0002.94
2023-12-15 22:25:00,SystemResetWarning,0835.6,5.00,000.00,024.8,023.9,000.0,032.9,026.1,11.6,0000.0,0005.15,0003.28,0002.98
2023-12-15 22:26:00,SystemResetWarning,0835.6,5.00,000.00,024.8,023.9,000.0,032.9,026.1,11.5,0000.0,0005.01,0003.31,0003.02
2023-12-15 22:27:00,SystemResetWarning,0835.6,5.00,000.00,024.8,023.9,000.0,032.9,026.1,11.7,0000.0,0005.09,0003.35,0003.06
2023-12-15 22:28:00,SystemResetWarning,0835.7,5.00,000.00,024.8,023.9,000.0,032.9,026.1,11.5,0000.0,0005.40,0003.40,0003.12
2023-12-15 22:29:00,SystemResetWarning,0835.7,5.00,000.00,024.8,023.9,000.0,032.9,026.1,11.5,0000.0,0005.54,0003.45,0003.16
2023-12-15 22:30:00,SystemResetWarning,0835.8,5.00,000.00,024.8,023.9,000.0,033.0,026.1,11.5,0000.0,0005.71,0003.52,0003.22
2023-12-15 22:31:00,SystemResetWarning,0835.7,5.00,000.00,024.7,023.9,000.0,033.0,026.1,11.5,0000.0,0006.25,0003.60,0003.26
2023-12-15 22:32:00,SystemResetWarning,0835.7,5.00,000.00,024.7,023.9,000.0,033.0,026.0,11.7,0000.0,0007.15,0003.61,0003.27
2023-12-15 22:33:00,SystemResetWarning,0835.8,5.00,000.00,024.7,023.9,000.0,033.0,026.0,11.8,0000.0,0007.41,0003.62,0003.29
2023-12-15 22:34:00,SystemResetWarning,0835.8,5.00,000.00,024.7,023.9,000.0,033.0,026.0,11.8,0000.0,0007.43,0003.64,0003.31
2023-12-15 22:35:00,SystemResetWarning,0835.8,5.00,000.00,024.7,023.9,000.0,033.0,026.0,11.7,0000.0,0007.39,0003.64,0003.32
2023-12-15 22:36:00,SystemResetWarning,0835.8,5.00,000.00,024.7,023.9,000.0,033.0,025.9,11.6,0000.0,0007.45,0003.70,0003.36
2023-12-15 22:37:00,SystemResetWarning,0835.7,5.00,000.00,024.7,023.9,000.0,033.0,025.9,11.7,0000.0,0007.49,0003.76,0003.41
2023-12-15 22:38:00,SystemResetWarning,0835.7,5.00,000.00,024.7,023.9,000.0,033.0,026.0,11.8,0000.0,0007.59,0003.81,0003.46
2023-12-15 22:39:00,SystemResetWarning,0835.8,5.00,000.00,024.7,023.9,000.0,033.0,026.0,11.9,0000.0,0007.51,0003.84,0003.51
2023-12-15 22:40:00,SystemResetWarning,0835.8,5.00,000.00,024.7,023.9,000.0,033.0,025.9,11.9,0000.0,0007.68,0003.86,0003.54
2023-12-15 22:41:00,SystemResetWarning,0835.8,5.00,000.00,024.6,023.9,000.0,033.0,026.0,12.0,0000.0,0008.53,0003.89,0003.57
2023-12-15 22:42:00,SystemResetWarning,0835.8,5.00,000.00,024.7,023.9,000.0,032.9,026.0,12.0,0000.0,0008.74,0003.91,0003.59
2023-12-15 22:43:00,SystemResetWarning,0835.8,5.00,000.00,024.7,023.9,000.0,032.9,026.0,11.8,0000.0,0008.36,0003.93,0003.61
2023-12-15 22:44:00,SystemResetWarning,0835.9,5.00,000.00,024.6,023.9,000.0,032.9,025.9,11.9,0000.0,0008.07,0003.94,0003.63
2023-12-15 22:45:00,SystemResetWarning,0835.9,5.00,000.00,024.6,023.9,000.0,032.9,025.9,11.9,0000.0,0008.55,0003.95,0003.63
2023-12-15 22:46:00,SystemResetWarning,0835.9,5.00,000.00,024.6,023.9,000.0,032.9,025.9,11.9,0000.0,0009.21,0003.96,0003.64
2023-12-15 22:47:00,SystemResetWarning,0836.0,5.00,000.00,024.6,023.9,000.0,032.9,025.9,11.9,0000.0,0009.22,0003.96,0003.63
2023-12-15 22:48:00,SystemResetWarning,0836.1,5.01,000.00,024.6,023.9,000.0,032.9,025.8,11.9,0000.0,0009.19,0003.94,0003.62
2023-12-15 22:49:00,SystemResetWarning,0836.1,5.00,000.00,024.6,023.8,000.0,032.9,025.7,12.0,0000.0,0009.15,0003.94,0003.62
2023-12-15 22:50:00,SystemResetWarning,0836.1,4.99,000.00,024.6,023.8,000.0,032.9,025.7,12.1,0000.0,0009.80,0003.95,0003.63
2023-12-15 22:51:00,SystemResetWarning,0836.1,5.00,000.00,024.6,023.8,000.0,032.9,025.7,12.1,0000.0,0009.75,0003.97,0003.64
2023-12-15 22:52:00,SystemResetWarning,0836.1,5.00,000.00,024.6,023.8,000.0,032.9,025.7,12.2,0000.0,0009.90,0003.99,0003.64
2023-12-15 22:53:00,SystemResetWarning,0836.1,5.00,000.00,024.5,023.8,000.0,032.9,025.8,12.1,0000.0,0009.88,0004.03,0003.65
2023-12-15 22:54:00,SystemResetWarning,0836.1,5.00,000.00,024.5,023.8,000.0,032.9,025.7,11.9,0000.0,0009.88,0004.04,0003.66
2023-12-15 22:55:00,SystemResetWarning,0836.1,5.00,000.00,024.5,023.8,000.0,032.9,025.7,12.0,0000.0,0009.84,0004.05,0003.67
2023-12-15 22:56:00,SystemResetWarning,0836.1,5.00,000.00,024.5,023.8,000.0,032.9,025.7,12.0,0000.0,0009.55,0004.06,0003.70
2023-12-15 22:57:00,SystemResetWarning,0836.1,5.00,000.00,024.5,023.8,000.0,032.9,025.6,12.0,0000.0,0008.73,0004.08,0003.72
2023-12-15 22:58:00,SystemResetWarning,0836.1,5.00,000.00,024.5,023.8,000.0,032.9,025.7,12.1,0000.0,0008.72,0004.08,0003.73
2023-12-15 22:59:00,SystemResetWarning,0836.1,5.00,000.00,024.5,023.8,000.0,032.8,025.6,12.1,0000.0,0009.06,0004.11,0003.74
